RH
24 25 20 24 32 33 37 38 38 35 32 30 27 22 20 22 21 22 23 23 22 22 23 24 28 28 27 32 29 26 34 42 75 88 89 100 90 61 43 36 34 33 33 34
28 19 25 30 29 33 34 36 32 32 30 25 21 17 18 19 21 24 24 26 26 25 26 28 31 31 31 31 40 34 30 31 77 95 96 100 83 56 45 41 39 38 37 38
28 17 21 27 24 25 31 30 28 26 22 23 23 22 21 20 21 18 16 20 24 29 32 30 32 35 36 30 45 52 40 42 79 98 90 99 76 55 50 46 43 41 42 45
28 26 26 24 23 23 23 23 23 25 26 24 26 30 26 22 18 13 10 12 20 22 41 52 39 34 35 38 56 45 25 29 57 94 99 94 70 59 53 50 47 48 50 53
23 22 20 18 17 16 16 17 21 27 26 24 24 28 16 24 21 17 22 21 21 22 25 29 33 41 45 49 62 48 20 19 51 92 99 98 77 64 56 53 53 57 60 61
32 29 26 24 20 28 29 26 26 25 23 30 24 27 26 21 20 26 24 23 25 20 20 37 46 52 55 53 55 29 23 26 35 56 84 91 76 67 59 60 64 65 67 64
26 24 23 23 24 22 25 26 37 42 43 37 27 28 27 22 27 31 30 32 30 30 23 24 53 54 54 58 36 22 22 27 34 42 59 72 76 68 63 68 69 61 53 51
20 22 23 28 26 23 23 26 36 45 42 34 28 35 28 29 26 29 29 28 27 30 35 45 59 63 54 30 24 21 21 33 35 40 60 76 78 70 68 74 64 58 58 56
25 21 22 20 19 24 29 29 28 34 35 43 34 32 30 29 30 30 31 33 33 36 46 61 68 69 40 31 28 32 35 40 36 39 60 77 80 71 76 79 66 63 53 41
43 60 25 26 33 32 33 32 38 38 52 49 39 33 30 30 31 42 47 52 52 51 50 57 54 44 38 46 30 37 42 35 34 35 58 80 77 73 79 74 66 58 48 52
50 63 54 44 35 39 36 39 39 46 45 65 89 78 46 42 50 53 58 60 67 73 81 70 53 59 54 49 38 39 48 40 33 38 57 78 76 74 78 78 66 53 60 66
59 88 74 57 40 48 49 44 44 47 52 65 77 70 51 62 81 90 89 80 97 88 98 82 94 72 50 45 40 38 38 40 43 40 55 74 74 74 83 72 64 63 74 75
91 89 94 72 57 48 51 49 46 51 74 84 89 79 58 87 81 93 98 92 92 92 98 88 85 80 66 47 37 39 40 38 54 52 53 64 70 72 80 75 67 72 79 82
93 95 98 95 79 65 70 56 53 65 95 94 92 78 55 58 56 62 79 94 98 98 97 92 88 77 54 56 52 44 42 40 63 70 61 64 70 77 80 76 72 76 84 90
70 90 88 84 83 98 94 87 67 63 63 89 86 78 31 63 56 61 90 77 89 68 73 76 65 50 48 56 56 57 44 42 46 71 75 76 84 88 85 80 82 94 91 77
68 97 73 94 83 93 94 64 77 73 57 58 56 42 40 55 60 80 66 68 63 57 52 48 41 41 38 43 61 43 48 51 48 46 48 83 91 92 96 96 97 99 97 90
82 98 97 93 91 92 85 57 83 67 51 52 66 42 52 56 56 57 55 56 69 61 49 46 44 44 55 60 44 46 59 58 61 66 66 75 83 91 99 99 98 98 92 87
62 92 98 94 97 94 56 53 62 57 50 49 57 58 61 65 63 66 64 63 67 59 47 47 46 47 53 52 51 63 56 66 70 67 70 75 79 82 98 100 98 97 92 97
82 83 96 95 85 70 61 51 61 57 53 52 52 53 66 67 72 64 70 62 57 53 54 52 50 50 60 62 63 69 72 69 76 76 76 88 96 96 92 95 98 98 98 99
94 96 100 97 96 83 57 53 60 58 67 60 55 60 68 70 67 58 55 58 52 44 34 36 46 61 60 60 75 70 72 69 75 83 91 91 85 67 74 83 97 97 98 98
76 70 81 96 96 87 72 61 53 60 55 54 58 65 68 69 55 40 41 50 44 36 27 50 71 73 72 72 67 73 72 72 79 98 99 88 94 95 82 100 100 98 97 97
98 98 90 82 80 92 82 84 84 75 56 46 57 64 63 71 54 45 47 44 46 49 41 74 97 97 81 70 71 69 73 77 72 74 61 63 72 91 97 96 96 96 96 96
84 97 97 96 95 94 88 90 81 66 64 55 66 76 80 85 72 53 53 72 66 62 65 71 74 72 65 62 61 55 55 55 56 53 48 57 76 95 96 95 97 96 96 96
74 89 94 97 98 96 76 88 92 72 67 68 70 73 78 68 73 66 76 68 53 56 82 83 78 68 67 64 59 78 75 68 77 81 58 57 62 100 98 99 98 98 98 96
81 96 95 96 95 96 93 81 74 65 63 60 60 70 70 68 66 66 67 61 66 49 40 63 83 82 83 81 79 89 74 67 79 79 78 60 78 99 97 97 98 98 97 90
95 96 97 96 99 98 79 72 66 67 66 67 69 67 69 71 66 60 64 64 61 42 40 69 74 96 91 93 92 84 82 81 59 68 92 73 84 100 100 99 98 97 86 43
Wind_Speed
15 18 25 17 9 16 21 28 31 34 31 34 36 39 34 30 28 30 27 31 35 38 39 38 34 28 24 24 27 26 27 29 30 30 26 21 20 21 20 20 19 18 18 18
9 11 3 8 15 18 21 28 30 36 31 30 32 43 38 32 31 28 25 35 41 44 42 42 40 33 26 25 19 22 24 28 31 31 25 23 21 19 18 17 18 18 18 18
12 10 10 14 16 16 19 23 26 29 28 26 30 44 40 38 37 32 30 32 37 46 48 48 44 38 29 25 20 16 19 23 27 30 27 24 21 19 17 18 19 19 19 19
13 11 17 21 23 19 30 23 24 25 26 22 17 24 43 40 33 30 30 30 35 39 46 48 47 43 34 27 21 19 18 21 24 26 25 23 22 19 19 20 20 19 19 19
24 24 27 27 29 30 36 27 29 27 29 28 35 17 55 29 39 29 22 23 34 36 42 49 51 45 34 30 25 19 18 19 18 21 24 25 23 20 20 20 19 18 18 20
27 26 26 28 32 20 26 31 31 33 33 16 45 22 36 42 33 30 30 27 30 35 31 45 53 46 38 33 25 15 14 16 16 20 24 25 21 19 19 17 17 18 20 19
28 36 40 38 43 31 27 21 10 6 6 14 38 20 37 34 32 17 19 17 22 26 28 37 54 44 37 26 17 12 14 17 18 21 23 23 20 19 18 18 16 17 15 14
24 43 7 3 10 26 36 24 15 7 10 17 27 12 21 14 25 36 35 30 29 28 29 39 39 31 22 18 13 12 16 17 17 19 22 22 21 20 20 17 15 14 12 12
20 32 48 35 39 33 35 32 28 24 26 18 24 27 29 35 32 31 31 30 29 26 25 29 27 21 17 15 11 11 14 14 16 17 21 23 23 21 19 15 14 13 12 10
15 15 39 46 34 33 27 31 19 17 6 16 7 14 16 19 22 18 20 20 21 23 27 30 31 24 17 11 12 13 14 14 16 18 20 21 21 20 19 16 15 14 13 12
28 22 25 31 40 24 24 22 23 14 12 5 4 6 23 28 22 24 22 26 28 25 20 17 17 15 7 8 10 10 12 12 15 16 18 21 21 21 21 20 19 16 15 14
45 39 37 45 52 44 41 39 33 18 9 13 11 13 25 16 12 15 21 29 20 24 23 26 18 15 8 9 10 12 12 15 18 18 17 21 22 22 21 22 21 19 18 17
20 19 18 24 30 35 35 35 37 27 15 18 8 7 12 1 14 19 9 17 29 34 37 20 19 17 17 13 15 16 17 18 21 21 20 22 24 24 24 24 23 22 20 21
35 42 38 23 30 27 25 28 28 20 10 10 20 26 38 34 27 36 35 4 18 22 17 21 16 26 21 20 19 18 18 18 21 20 21 25 28 27 26 26 27 24 22 22
34 33 42 51 43 31 32 35 42 40 36 22 27 30 58 35 32 31 25 22 19 15 17 19 13 21 24 26 24 19 18 22 18 19 20 24 32 32 31 32 29 25 22 24
31 30 37 43 47 39 36 47 48 45 47 45 42 49 39 36 30 27 20 20 22 18 19 20 23 28 28 25 24 20 21 21 19 19 21 25 28 31 35 33 28 28 23 21
36 31 21 12 19 15 17 23 30 39 35 31 35 29 22 21 21 21 19 20 18 12 10 14 22 29 28 25 21 17 19 19 18 20 23 24 26 26 28 28 27 26 19 23
41 34 28 17 15 9 22 17 13 21 24 18 21 20 19 19 18 12 13 14 14 15 19 20 23 23 22 22 21 21 20 19 18 18 20 23 25 28 31 31 34 25 24 26
29 35 24 12 15 23 32 24 17 19 25 21 22 24 21 16 13 12 11 13 16 18 20 21 24 26 24 25 21 21 24 22 20 19 20 22 25 30 32 32 36 30 24 26
15 16 37 19 7 5 7 6 5 9 12 15 15 13 17 20 11 8 12 15 15 17 19 20 27 33 29 29 24 23 24 22 20 19 21 23 22 23 27 30 33 25 27 30
21 17 16 20 12 17 22 21 17 12 16 14 9 9 7 8 7 13 16 17 19 22 24 22 21 29 27 26 18 21 22 21 19 21 25 24 22 23 26 28 31 29 30 29
16 12 6 10 7 7 7 14 13 6 11 12 15 14 16 11 14 18 17 20 19 21 16 7 4 19 20 16 14 16 17 17 16 18 20 20 21 23 25 24 24 26 27 27
8 22 24 14 5 19 17 7 5 1 2 4 6 7 10 16 19 22 20 19 17 21 20 13 10 11 10 11 14 15 13 14 14 16 17 19 20 20 20 19 18 19 21 24
30 26 23 24 6 9 16 9 4 3 9 8 9 13 17 20 20 21 18 15 16 16 16 17 15 14 11 11 13 10 13 14 14 15 18 18 17 18 18 17 17 16 17 16
30 29 16 18 11 14 12 9 7 10 12 15 17 19 15 14 16 19 18 21 22 18 19 19 20 19 16 14 19 15 14 15 16 17 17 15 14 15 16 14 13 13 15 19
19 16 21 23 21 16 16 12 11 14 17 16 16 19 21 21 21 23 25 26 24 20 20 19 23 21 17 13 13 14 14 14 14 14 14 13 14 14 14 15 14 17 20 18
Wind_Direction
275 271 277 297 299 293 282 286 288 290 296 298 293 287 285 266 265 271 268 265 266 271 269 268 265 266 269 278 267 263 260 257 248 244 242 236 231 234 238 244 249 253 257 264
239 268 309 296 309 286 273 279 277 284 294 300 298 289 288 283 273 270 268 262 258 260 259 256 256 252 256 267 271 277 273 259 242 242 237 235 236 239 243 251 256 258 257 258
249 283 286 280 282 281 267 266 279 287 299 294 299 288 286 283 281 280 271 263 264 258 253 252 253 250 245 259 257 264 267 260 248 249 249 244 240 242 247 250 250 250 251 255
273 276 260 266 268 273 280 279 288 288 285 296 287 284 285 289 294 291 275 264 259 257 246 242 249 253 248 248 238 257 264 263 252 243 243 236 235 235 237 240 242 246 253 265
269 282 283 281 279 281 277 282 277 276 275 285 277 253 273 284 288 290 293 275 259 267 259 248 251 246 239 236 242 255 259 266 253 245 242 236 237 235 236 238 243 251 260 269
278 279 272 272 290 267 281 292 282 281 276 266 267 251 273 281 292 298 285 273 271 256 263 248 238 232 231 236 248 252 253 251 246 245 242 239 233 229 232 237 242 254 267 271
284 280 284 282 280 283 280 287 282 265 226 246 271 251 254 281 282 280 303 288 279 253 251 251 233 229 230 240 237 233 246 248 245 244 243 241 237 231 230 231 245 256 253 254
285 298 252 181 249 289 289 279 248 261 262 267 269 238 254 243 276 279 289 280 271 267 243 237 232 235 242 227 230 236 238 239 245 243 241 241 239 232 226 230 243 243 247 256
286 267 270 273 278 279 278 265 273 276 273 262 255 265 267 268 269 274 264 252 254 239 219 219 225 229 224 234 235 239 241 238 245 240 233 232 232 229 224 233 231 238 243 258
277 305 262 274 276 262 263 269 281 267 248 255 246 253 257 277 276 251 231 225 229 228 226 224 228 218 213 232 234 239 228 236 246 244 237 231 231 227 224 229 233 236 244 265
281 294 279 274 270 279 280 274 262 268 263 253 269 245 256 280 262 244 236 218 211 203 206 220 226 229 243 234 229 234 231 246 252 247 236 228 225 224 226 223 234 237 247 263
283 285 278 274 275 277 275 272 274 250 237 247 249 259 269 250 278 233 233 216 194 198 210 199 218 245 270 279 281 293 284 264 256 249 235 226 221 221 225 228 234 240 249 262
276 273 287 274 277 269 262 266 267 267 254 238 240 241 233 136 265 265 274 238 227 229 224 224 209 239 254 262 261 263 274 261 250 247 240 227 222 223 228 229 234 241 251 261
275 269 261 264 270 271 273 264 257 273 237 237 236 264 268 265 287 277 270 276 265 239 223 197 229 231 232 240 249 260 261 262 251 247 239 238 227 224 229 229 233 236 248 259
280 277 272 266 267 265 270 272 270 266 273 260 275 272 284 278 283 269 266 291 257 272 261 245 264 245 249 241 247 235 246 263 258 253 251 239 247 231 226 224 229 237 245 255
288 283 283 263 257 268 276 275 267 263 274 274 277 277 281 278 286 285 263 271 275 242 242 246 254 249 255 243 238 244 244 251 251 253 252 252 251 253 232 227 221 237 240 259
286 275 270 281 280 279 274 287 273 268 270 272 264 289 301 288 277 268 268 274 275 256 255 239 241 241 245 237 245 256 251 255 254 256 252 249 252 254 248 243 244 245 249 258
272 265 262 272 281 262 271 288 275 256 262 274 286 295 286 282 275 260 237 241 240 246 253 255 256 249 243 247 254 247 253 254 251 250 250 252 258 256 250 250 251 235 246 251
269 260 256 244 254 269 275 269 250 260 273 281 278 284 273 276 247 243 243 251 263 268 262 251 252 249 240 244 245 244 247 262 247 250 254 258 259 255 246 244 253 239 248 256
313 275 235 236 231 248 212 249 262 315 271 274 279 259 258 247 256 298 292 283 287 280 285 263 254 244 247 245 233 248 251 257 254 258 261 267 269 258 242 239 251 244 249 250
328 318 287 246 249 263 278 249 255 270 278 275 269 215 226 277 288 317 316 290 284 288 295 299 290 233 228 229 226 244 256 250 251 252 255 261 255 249 243 239 241 243 246 245
315 313 305 284 255 282 332 253 234 260 292 291 266 255 242 280 291 309 308 308 309 313 286 263 207 188 201 207 213 232 232 232 238 249 253 246 243 243 240 235 237 236 237 238
305 327 311 287 262 298 295 156 137 320 303 283 298 292 299 297 308 308 304 314 321 316 284 245 203 208 194 189 202 208 223 229 235 242 244 241 242 239 231 232 235 242 244 240
314 311 301 310 346 320 283 243 102 281 288 276 292 289 285 292 290 297 304 306 301 315 303 250 212 213 202 208 201 212 223 225 242 262 246 241 239 233 233 235 236 234 233 220
307 301 297 323 13 7 15 4 1 300 295 300 292 285 278 280 292 295 289 292 297 287 286 280 230 214 216 218 229 225 230 236 254 259 245 239 233 226 229 229 230 228 210 195
313 312 303 312 359 4 335 314 302 302 302 295 283 281 282 284 293 299 294 291 286 283 273 275 233 213 219 229 208 218 231 240 256 254 242 239 230 228 228 224 218 208 201 205